This is the latest recevied weather packets stored in our database for station/object KC0OOO-WX. If no packets are shown the sender has not sent any weather packets the latest 10 day(s).
| Time | Temp. | Humidity | Pressure | Rain* | Wind** | Luminosity | Snow |
|---|---|---|---|---|---|---|---|
| 1777938032 | 17.78° C | 24% | 1015.2 hPa | 0 mm | - | - | - |
| 1777937431 | 17.22° C | 25% | 1014.9 hPa | 0 mm | - | - | - |
| 1777936831 | 17.22° C | 26% | 1015.2 hPa | 0 mm | - | - | - |
| 1777936231 | 17.22° C | 26% | 1015.2 hPa | 0 mm | - | - | - |
| 1777935631 | 16.67° C | 26% | 1015.2 hPa | 0 mm | - | - | - |
| 1777935031 | 17.22° C | 28% | 1015.2 hPa | 0 mm | - | - | - |
| 1777934431 | 17.22° C | 27% | 1015.2 hPa | 0 mm | - | - | - |
| 1777933831 | 17.22° C | 27% | 1015.2 hPa | 0 mm | - | - | - |
| 1777933231 | 17.22° C | 27% | 1015.2 hPa | 0 mm | - | - | - |
| 1777932631 | 17.78° C | 25% | 1015.6 hPa | 0 mm | - | - | - |
| 1777932031 | 18.89° C | 26% | 1015.6 hPa | 0 mm | - | - | - |
| 1777931431 | 17.78° C | 29% | 1015.9 hPa | 0 mm | - | - | - |
| 1777930831 | 18.89° C | 27% | 1015.9 hPa | 0 mm | - | - | - |
| 1777930231 | 17.78° C | 30% | 1016.3 hPa | 0 mm | - | - | - |
| 1777929631 | 17.22° C | 28% | 1016.3 hPa | 0 mm | - | - | - |
| 1777929031 | 17.22° C | 29% | 1016.6 hPa | 0 mm | - | - | - |
| 1777928431 | 17.22° C | 33% | 1016.6 hPa | 0 mm | - | - | - |
| 1777927831 | 16.67° C | 32% | 1016.9 hPa | 0 mm | - | - | - |
| 1777927231 | 16.67° C | 32% | 1016.9 hPa | 0 mm | - | - | - |
| 1777926631 | 17.22° C | 34% | 1016.6 hPa | 0 mm | - | - | - |
| 1777926031 | 17.78° C | 34% | 1016.6 hPa | 0 mm | - | - | - |
| 1777925431 | 17.22° C | 34% | 1016.6 hPa | 0 mm | - | - | - |
| 1777924830 | 16.67° C | 35% | 1016.6 hPa | 0 mm | - | - | - |
| 1777924230 | 16.11° C | 36% | 1016.9 hPa | 0 mm | - | - | - |
| 1777923630 | 16.67° C | 36% | 1016.9 hPa | 0 mm | - | - | - |
* Rain latest hour (hover to see other rain measurements)
** Current wind speed in m/s (hover to see current wind gust speed)